Theta_e
319 318 318 319 318 315 311 311 311 311 312 312 312 313 313 308 307 310 311 316 317 321 326 324 331 334 340 337 344 348 358 359 356 358 356 350 354 349 347 349 347 347 348 348 349
316 317 317 316 317 318 316 312 311 311 312 312 312 313 311 306 310 314 314 316 318 323 328 328 328 329 331 334 344 352 359 355 354 352 350 349 354 353 351 350 351 351 349 350 349
314 314 315 315 315 316 317 316 312 311 312 311 311 313 308 308 317 314 315 315 319 320 320 320 321 322 324 334 348 353 358 355 355 351 348 351 353 351 351 351 349 351 352 351 350
312 313 313 314 314 315 316 317 315 312 312 311 311 312 306 313 319 321 324 314 317 319 319 318 320 324 327 343 351 354 355 355 350 349 351 353 351 351 350 352 346 348 350 350 351
312 313 313 313 314 314 316 317 317 312 312 312 312 310 314 316 314 315 321 316 314 320 319 320 324 326 329 350 352 355 354 349 349 348 350 350 352 352 351 349 346 348 350 351 351
312 313 314 314 314 314 315 316 317 312 313 313 312 309 317 314 315 323 323 314 318 319 318 320 324 331 347 351 353 351 350 349 348 350 350 350 351 348 349 348 348 349 350 350 350
312 313 314 314 314 314 315 316 317 312 315 314 312 314 317 314 316 324 320 316 319 319 320 318 321 327 346 351 347 347 351 351 351 349 351 349 351 353 349 348 348 348 349 348 348
313 313 314 314 315 315 315 317 315 312 316 313 312 317 316 314 322 322 317 317 319 318 317 318 331 341 345 343 342 345 350 356 352 350 350 349 356 349 349 349 349 348 347 348 347
313 313 314 314 315 316 315 316 314 314 314 313 320 322 323 322 324 324 318 317 316 316 317 318 332 344 344 347 345 347 349 352 354 351 352 350 353 346 348 350 349 349 348 347 347
313 314 314 314 315 316 316 317 317 315 314 319 323 324 324 326 325 323 320 316 317 317 318 320 335 342 347 346 335 338 341 347 354 354 352 353 352 348 348 350 350 350 349 348 348
313 313 314 315 316 316 317 319 320 323 324 326 324 322 323 324 323 324 320 319 319 320 322 321 325 328 330 341 340 342 347 345 349 350 353 354 353 350 347 348 349 349 350 349 348
313 313 314 316 317 316 316 313 319 319 323 320 323 323 322 323 326 322 323 326 321 322 320 323 328 325 325 335 340 341 340 341 346 353 355 354 355 351 349 349 347 347 347 347 347
313 314 315 316 316 316 315 314 315 319 321 319 320 322 323 324 326 324 324 321 322 320 321 326 326 322 325 333 333 332 335 342 349 354 354 355 358 356 351 350 348 347 346 344 346
314 314 315 316 315 317 317 318 319 319 325 325 325 325 325 326 327 324 322 324 319 322 319 322 322 321 325 327 331 329 337 342 348 352 353 350 357 353 347 347 351 349 347 346 347
313 314 315 316 316 317 318 318 319 316 331 327 327 324 323 326 324 323 318 322 324 320 319 322 321 326 330 327 335 334 341 343 348 350 351 352 354 348 348 349 348 349 348 346 345
314 315 314 314 314 316 318 319 316 326 326 329 327 327 326 324 320 320 322 321 319 319 319 321 320 327 326 336 337 339 342 344 348 353 355 347 353 346 347 348 345 344 348 347 344
315 318 319 315 317 317 318 317 327 326 324 326 327 326 328 326 324 322 323 323 323 322 323 321 322 323 333 333 340 336 339 334 341 347 340 341 352 346 344 342 344 344 345 346 346
316 321 320 317 317 318 315 324 328 323 327 324 322 322 328 325 324 321 323 324 320 320 321 323 325 322 327 327 328 340 337 330 329 329 330 346 349 342 341 343 342 342 343 346 346
318 321 321 322 319 318 320 326 324 323 323 320 322 325 326 325 325 322 323 324 323 320 323 322 322 321 321 326 329 329 338 329 329 332 333 336 342 341 344 344 343 345 346 348 347
318 320 321 321 320 314 322 321 321 320 321 320 322 323 327 326 327 324 324 323 322 320 323 322 324 322 320 321 320 325 326 326 327 331 332 338 346 343 348 348 343 345 346 346 347
318 327 322 320 315 320 322 321 319 319 319 321 322 322 321 323 325 324 326 324 320 319 320 322 322 324 323 324 325 324 325 324 328 332 330 332 332 344 345 347 347 344 343 346 347
319 329 323 320 324 316 321 319 316 321 320 320 320 322 323 322 325 326 326 324 320 319 320 321 322 325 325 322 323 323 325 326 328 331 334 339 332 336 341 342 345 346 345 344 343
325 325 323 317 325 327 326 326 325 327 327 328 323 320 320 322 327 326 326 326 326 320 322 320 322 326 328 331 325 327 324 324 326 328 337 333 333 337 338 340 340 343 346 347 346
325 331 327 323 321 327 329 328 329 327 327 326 327 327 328 322 322 324 326 329 328 329 331 322 323 328 331 333 332 334 332 326 327 332 333 335 336 338 340 342 343 344 343 345 346
323 326 323 330 329 325 324 327 330 331 328 327 328 330 328 329 329 328 329 329 328 328 325 324 330 327 326 326 329 332 334 331 332 333 335 336 337 337 338 342 343 344 345 344 343
324 324 322 325 323 324 324 329 330 329 329 330 331 330 328 330 331 332 330 328 330 329 330 327 336 328 332 330 328 332 333 333 334 335 335 334 336 336 336 338 341 343 344 345 346
315 316 321 318 325 325 327 327 328 327 327 327 327 329 330 328 327 327 327 328 327 328 329 332 334 333 334 332 331 334 334 335 336 336 336 338 336 338 338 340 342 344 344 345 347
Wind_Speed
15 15 14 12 12 9 8 6 5 5 5 4 4 5 6 6 7 5 6 5 10 13 11 14 6 4 4 1 2 2 0 2 2 2 1 2 2 4 5 7 3 3 4 8 21
15 15 15 14 12 11 10 7 6 5 5 4 4 5 6 7 5 9 4 10 15 17 13 12 7 7 2 2 3 2 1 1 1 2 2 4 3 3 4 8 3 3 7 18 23
16 15 15 14 13 11 11 9 6 5 5 4 4 4 5 5 3 3 7 15 22 14 8 6 7 3 2 2 3 3 2 0 2 4 4 6 4 2 7 5 3 5 13 17 21
16 15 15 14 14 13 11 11 7 5 4 3 3 3 3 1 5 3 3 21 19 13 11 6 5 3 2 3 2 2 2 2 1 1 2 5 1 3 6 3 1 10 17 19 17
17 16 15 15 14 14 11 12 9 5 3 2 2 1 0 2 5 3 4 19 20 16 8 6 5 3 0 3 3 1 1 2 1 2 1 1 2 1 6 3 9 14 16 15 14
19 18 16 16 15 15 13 13 10 5 3 2 1 1 1 4 2 4 6 24 17 12 7 5 2 3 4 3 3 2 2 1 2 4 3 4 2 2 3 10 12 14 15 13 13
20 19 17 17 17 15 14 13 9 4 2 3 3 2 1 2 2 3 10 13 18 9 4 2 3 0 3 5 3 2 1 2 4 5 3 3 3 4 2 11 14 14 13 12 13
20 20 18 17 18 16 14 12 7 2 2 3 4 1 5 2 3 10 8 10 11 6 3 3 7 6 2 6 2 1 1 2 3 5 2 4 1 2 6 10 11 11 11 12 14
22 20 19 18 18 16 14 7 3 2 4 5 2 1 1 1 3 9 8 6 8 4 3 4 3 3 3 1 1 2 3 4 2 7 3 6 2 2 7 10 11 12 12 12 12
23 22 22 19 18 16 9 3 7 6 5 1 0 2 3 2 4 8 10 11 4 7 3 2 2 2 2 2 5 5 6 4 6 7 8 8 11 5 9 12 14 13 12 12 12
24 26 23 20 19 16 7 5 2 2 3 5 1 2 2 0 4 4 7 8 4 3 5 2 5 10 7 7 4 5 5 8 4 4 8 13 12 15 13 12 12 12 13 14 15
26 30 24 20 18 6 11 3 2 2 4 8 7 6 6 2 2 3 11 6 3 6 4 4 12 5 2 5 6 7 10 7 3 1 8 4 14 16 16 17 17 17 15 14 13
29 31 24 20 8 3 3 4 6 4 2 2 4 4 3 8 4 9 10 5 3 5 5 7 1 6 5 5 8 7 8 3 1 0 3 8 9 8 11 17 15 16 15 15 15
36 31 26 18 1 2 4 8 3 2 2 2 3 3 5 4 4 3 10 5 2 8 4 5 5 8 7 11 9 11 8 6 3 1 3 3 6 5 2 7 11 15 14 15 15
40 33 25 9 4 3 4 4 3 3 2 3 4 3 3 5 7 3 2 4 8 5 5 5 5 6 5 6 10 1 1 3 2 3 4 2 4 3 3 5 7 13 16 15 15
41 33 19 3 8 4 5 2 4 2 3 3 4 6 7 3 2 4 4 3 2 5 4 9 1 4 3 2 11 10 4 5 3 2 2 2 2 5 2 3 3 1 13 15 16
40 17 3 9 1 7 1 3 2 3 2 2 3 6 10 7 6 6 11 11 7 6 7 3 9 4 6 5 6 5 5 1 1 1 2 2 4 10 6 8 10 6 11 15 15
29 8 4 4 3 1 3 2 3 0 2 2 1 4 9 9 4 5 10 10 7 2 2 5 11 8 9 12 5 9 5 3 2 4 6 3 5 1 1 6 3 2 6 13 14
11 4 5 7 5 2 2 3 2 3 2 5 2 3 5 6 3 5 8 8 12 15 8 5 6 2 4 3 5 5 6 2 2 1 4 3 5 6 3 0 2 4 9 13 14
5 2 8 7 6 1 1 1 2 3 4 2 1 1 5 5 8 7 9 4 8 16 16 4 4 2 3 5 5 6 10 3 2 3 4 1 5 4 2 5 3 4 7 9 11
3 2 6 3 5 2 3 2 3 4 4 2 2 2 1 2 5 6 5 3 6 7 13 9 5 4 1 6 8 5 5 2 2 2 3 4 4 5 6 6 8 7 7 10 12
3 2 9 5 2 1 2 1 4 3 1 3 2 3 4 2 3 6 8 6 6 11 11 10 4 9 13 3 3 3 6 10 6 4 1 3 5 2 7 5 7 9 9 8 9
2 2 6 4 2 1 1 1 2 4 4 4 3 3 1 3 3 5 4 1 4 9 9 9 7 5 4 5 3 7 6 6 4 3 6 6 3 2 7 8 9 10 8 9 9
1 1 3 4 2 2 3 2 3 3 0 4 4 2 3 1 1 2 1 1 3 1 4 8 5 7 11 9 2 5 7 9 11 6 7 9 6 6 10 11 9 9 10 10 8
4 3 2 2 3 3 1 3 3 4 2 5 2 8 4 2 1 1 3 4 1 4 3 5 5 6 13 11 6 8 10 14 13 10 9 7 9 12 10 10 11 8 9 8 8
3 2 2 1 2 2 2 1 2 4 3 4 4 11 5 1 3 3 7 2 3 6 2 2 3 2 6 8 10 12 12 14 12 7 8 6 9 9 5 4 7 10 5 7 7
4 1 2 2 2 2 1 1 2 5 1 2 8 7 6 3 11 12 11 12 7 5 4 2 1 1 9 7 4 9 16 18 13 8 10 9 8 5 4 9 12 11 10 11 10
Wind_Direction
19 16 15 15 15 4 352 335 325 317 322 322 312 299 299 301 293 266 234 213 178 168 152 148 163 160 156 208 181 127 229 298 314 230 276 195 116 100 68 144 110 97 143 131 149
15 13 13 12 12 11 2 346 332 326 321 311 300 294 305 315 300 247 225 184 168 159 147 156 172 164 167 170 166 208 232 271 248 229 221 178 121 144 157 157 133 121 98 140 149
8 8 8 9 7 3 2 350 332 325 320 309 291 290 311 327 261 233 184 179 167 172 177 165 134 183 198 172 170 166 269 262 221 242 166 167 149 177 158 194 210 175 153 153 157
6 3 3 4 2 0 355 351 332 314 315 308 282 291 303 355 177 110 155 180 176 171 149 151 156 182 188 153 122 225 20 4 281 202 158 171 183 111 166 95 74 146 157 159 169
2 1 1 360 359 356 351 346 333 303 295 284 278 278 108 218 256 329 245 175 172 172 175 183 176 190 102 118 132 51 44 64 214 186 225 205 153 32 215 152 122 140 159 172 179
1 360 358 356 353 351 346 339 329 292 289 195 195 183 212 221 308 341 150 163 168 166 177 177 174 138 111 79 58 79 86 116 197 193 199 224 187 295 230 166 147 159 172 177 185
357 356 354 352 347 345 343 334 323 270 240 178 157 122 245 214 307 142 134 167 170 172 169 162 132 254 131 115 110 98 290 226 231 189 178 149 261 233 140 169 167 175 180 183 192
354 352 350 348 343 339 340 332 322 230 196 156 139 119 248 230 57 157 135 150 173 204 70 154 101 93 29 121 73 62 166 253 192 194 93 182 218 217 165 167 182 188 191 199 200
354 350 346 343 339 334 340 343 35 148 151 131 82 279 253 268 207 186 162 141 159 158 128 93 68 75 134 123 334 23 305 279 213 206 155 215 228 224 185 197 201 204 205 212 216
353 350 344 339 335 330 339 142 102 96 120 97 317 251 241 186 161 158 163 138 133 130 150 117 84 149 116 187 294 298 309 295 259 201 211 216 240 208 197 213 215 215 221 226 225
352 348 343 338 332 323 148 130 184 177 220 218 157 300 310 25 136 133 157 143 111 155 186 144 214 225 227 221 248 280 286 302 265 210 208 227 245 234 212 216 226 221 217 225 233
351 347 341 340 333 327 159 215 104 26 291 232 250 275 266 310 118 116 149 157 171 180 153 177 235 224 149 212 244 268 289 299 272 181 219 272 258 247 234 222 219 218 214 218 236
349 346 341 342 336 163 216 219 180 22 256 269 195 208 200 177 201 180 179 138 158 172 191 223 168 119 198 236 262 270 275 286 348 58 227 295 273 231 238 233 223 227 225 211 214
347 343 337 343 331 246 245 171 228 251 295 180 215 214 145 173 185 166 175 160 145 218 152 258 238 244 251 270 227 293 244 266 193 314 328 340 303 272 239 244 226 225 211 202 201
344 338 327 320 266 223 157 171 294 161 188 134 141 131 154 194 132 166 206 146 206 176 192 221 203 190 216 261 180 251 51 177 230 267 292 212 259 270 314 277 233 217 208 205 198
342 333 316 246 201 193 169 273 152 211 204 128 132 161 158 173 113 116 163 103 110 162 230 253 199 222 234 187 189 161 93 78 81 323 275 35 252 274 250 262 295 209 203 198 196
342 334 305 167 118 150 98 173 170 222 343 111 161 175 182 171 170 155 175 183 194 195 225 246 246 216 184 186 195 204 180 318 264 238 319 287 224 264 288 288 289 280 204 191 192
346 17 80 118 179 197 140 170 205 191 291 342 30 147 193 162 189 154 160 195 216 182 145 261 259 211 185 223 217 188 223 232 280 305 324 182 243 272 82 318 291 244 199 186 188
2 37 55 343 164 97 182 199 247 201 337 337 59 187 185 198 163 177 198 216 208 197 212 191 249 267 212 164 187 150 203 325 169 135 262 341 277 268 89 252 46 115 157 183 192
360 63 23 50 118 249 140 213 266 236 316 313 321 308 188 168 177 198 190 205 217 197 206 195 265 196 112 148 74 208 142 179 192 232 266 230 288 296 206 186 191 170 178 183 194
30 96 5 345 357 60 203 230 279 256 237 267 283 276 219 177 207 194 197 217 219 182 200 189 223 234 296 210 191 155 195 83 129 294 275 293 315 218 255 191 197 193 197 188 197
351 87 350 340 68 36 115 326 325 333 9 283 266 263 241 188 228 216 208 247 173 149 176 206 228 254 245 161 258 236 218 194 234 202 46 309 275 233 242 228 191 203 194 196 197
46 325 351 350 120 93 6 333 290 344 341 334 295 256 317 264 247 215 188 160 150 178 172 169 216 249 239 161 156 218 183 198 160 137 199 239 240 236 264 256 224 217 199 203 195
350 89 23 54 27 32 7 358 316 358 173 349 293 345 338 266 13 300 290 81 349 51 2 179 194 219 240 250 122 180 191 194 216 216 202 229 249 221 223 237 232 214 201 214 210
12 56 20 28 58 50 353 333 318 335 16 6 142 27 323 296 299 279 335 322 22 8 118 205 254 209 253 268 254 235 191 187 206 206 206 232 218 257 259 237 233 216 191 200 209
25 2 15 46 309 295 353 84 330 332 319 8 27 339 335 89 30 322 353 301 345 339 42 354 251 245 268 264 234 245 223 195 215 181 231 195 244 241 271 210 241 249 238 217 215
20 43 297 24 354 273 110 66 75 346 244 73 354 324 322 356 315 286 266 267 271 304 308 299 268 245 258 335 200 246 218 188 192 211 218 197 230 169 227 227 233 228 218 223 226